Location: Gorze? G�rny
(49.8500°N, 19.5000°E)
Time: 11:14:50
(UTC+00:00)

ATLAS 2AS CENTAUR R/B - Visible Passes

Search period start: 22 September 2021 00:00
Search period end: 02 October 2021 00:00
Orbit: 959 x 1253 km, 63.7° (Epoch: 05 September)

Date Brightness Start Highest point End Pass type
(mag) Time Alt. Az. Time Alt. Az. Time Alt. Az.
22 Sep 5.9 03:40:04 10° SE 03:43:20 13° ESE 03:46:35 10° ENE visible
24 Sep 5.3 03:57:27 10° SSE 04:03:40 27° ESE 04:09:49 10° ENE visible
25 Sep 5.5 03:14:34 10° SE 03:19:19 18° ESE 03:24:01 10° ENE visible
26 Sep 5.9 02:34:05 10° ESE 02:35:05 10° E 02:36:05 10° E visible
27 Sep 4.7 03:32:59 10° S 03:39:47 33° ESE 03:46:28 10° NE visible
28 Sep 5.2 02:49:38 10° SSE 02:55:20 23° ESE 03:00:59 10° ENE visible
29 Sep 5.4 02:07:15 10° SE 02:11:01 14° ESE 02:14:46 10° ENE visible
29 Sep 3.7 03:52:56 10° SSW 04:00:35 59° ESE 04:08:05 10° NE visible
30 Sep 4.2 03:08:44 10° S 03:15:56 41° ESE 03:23:01 10° NE visible
01 Oct 4.7 02:25:01 10° SSE 02:31:24 28° ESE 02:37:44 10° ENE visible
